(232233) Taihu = 2002 LE61 = 2008 UU225

Discovered at Palomar on 2002-06-02 by NEAT.
(232233) Taihu

Lake Taihu, the source lake of the Yangtze River Delta, is one of the five major freshwater lakes in China. Taihu is located in Suzhou and is the cradle of the Wu culture with beautiful landscapes and profound historical heritage. [Ref: WGSBN Bull. 3, #7, 6]

Orbit

Orbit type: Main Belt

Note: WebGL enabled browser required.

epoch2024-03-31.0
epoch JD2460400.5
perihelion date2022-04-26.48448
perihelion JD2459695.98448
argument of perihelion (°)202.59240
ascending node (°)147.24111
inclination (°)6.63125
eccentricity0.0871587
perihelion distance (AU)2.5463361
Tisserand w.r.t. Jupiter3.3
ΔV w.r.t. Earth (km/sec)10.2
semimajor axis (AU)2.7894621
mean anomaly (°)149.04373
mean daily motion (°/day)0.21155490
aphelion distance (AU)3.033
period (years)4.66
P-vector [x]0.98290830
P-vector [y]-0.14627996
P-vector [z]-0.11177409
Q-vector [x]0.17316680
Q-vector [y]0.94072091
Q-vector [z]0.29164608
absolute magnitude16.24
phase slope0.15
uncertainty0
referenceMPEC 2024-E73
observations used346
oppositions14
arc length (days)10297
first opposition used1995
last opposition used2024
residual rms (arc-secs)0.74
perturbers coarse indicatorM-v
perturbers precise indicator003Ek
first observation date used1995-12-26.0
last observation date used2024-03-05.0
computer nameMPCLINUX
JD of orbit computation2456670.959633
perihelion JD uncertainty (days)1.9255E-04
argument of perihelion uncertainty (°)7.0196E-05
ascending node uncertainty (°)5.6680E-05
inclination uncertainty (°)6.7454E-06
eccentricity uncertainty 5.9700E-08
perihelion distance uncertainty (AU)1.7201E-07
Minimum Orbit Intersection Distances (in AU)
for orbit epoch: 2460400.5, reference: E2024-E73
Mercury2.15945
Venus1.81927
Earth1.54084
Mars1.15992
Jupiter2.33428
Saturn6.1754
Uranus15.4084
Neptune27.1783

Observations

361 total observations over interval: 1995 12 26.42248 – 2024 03 05.155451
These data are available for download (format description).

Date (UT) J2000 RA J2000 Dec Magn Location Ref
1995 12 26.42248 09 17 54.34 +12 01 46.9   691 – Steward Observatory, Kitt Peak-Spacewatch MPS 264550
1995 12 26.44387 09 17 53.82 +12 01 49.8   691 – Steward Observatory, Kitt Peak-Spacewatch MPS 264550
1995 12 26.46845 09 17 53.28 +12 01 53.0 21.1 V 691 – Steward Observatory, Kitt Peak-Spacewatch MPS 264550
2002 05 23.34709 16 08 49.69 -10 34 49.6 20.6 R 644 – Palomar Mountain/NEAT MPS 157726
2002 05 23.41209 16 08 46.25 -10 34 39.1 19.6 R 644 – Palomar Mountain/NEAT MPS 157726
2002 06 02.23074 16 00 22.95 -10 14 55.3 19.6 R 644 – Palomar Mountain/NEAT MPS 157726
2002 06 02.25280 16 00 21.84 -10 14 53.0 19.4 R 644 – Palomar Mountain/NEAT MPS 157726
2002 06 02.27377 16 00 20.74 -10 14 51.1 20.1 R 644 – Palomar Mountain/NEAT MPS 157726
2002 06 03.21693 15 59 33.80 -10 13 26.4 20.8 R 644 – Palomar Mountain/NEAT MPS 157726
2002 06 03.29049 15 59 29.96 -10 13 20.2 19.9 R 644 – Palomar Mountain/NEAT MPS 157726
2002 06 03.35627 15 59 26.54 -10 13 14.1 21.2 R 644 – Palomar Mountain/NEAT MPS 157726
2002 06 10.21748 15 54 00.31 -10 05 53.9 20.8 R 644 – Palomar Mountain/NEAT MPS 157726
2002 06 10.23834 15 53 59.35 -10 05 54.7 20.5 R 644 – Palomar Mountain/NEAT MPS 157726
2002 06 10.26044 15 53 58.28 -10 05 53.4 20.5 R 644 – Palomar Mountain/NEAT MPS 157726
2008 09 27.43935 02 43 42.85 +06 46 08.1 20.0 V G96 – Mt. Lemmon Survey MPS 264550
2008 09 27.44577 02 43 42.70 +06 46 06.0 20.1 V G96 – Mt. Lemmon Survey MPS 264550
2008 09 27.45210 02 43 42.56 +06 46 04.1 20.1 V G96 – Mt. Lemmon Survey MPS 264550
2008 09 27.45853 02 43 42.42 +06 46 01.9 20.1 V G96 – Mt. Lemmon Survey MPS 264550
2008 10 07.37986 02 38 52.94 +05 49 56.7 20.3 V 703 – Catalina Sky Survey MPS 264550
2008 10 07.38780 02 38 52.72 +05 49 53.9 20.4 V 703 – Catalina Sky Survey MPS 264550
2008 10 07.39571 02 38 52.36 +05 49 51.0 19.4 V 703 – Catalina Sky Survey MPS 264550
2008 10 07.40362 02 38 52.04 +05 49 47.5 20.4 V 703 – Catalina Sky Survey MPS 264550
2008 10 24.26173 02 26 36.46 +04 11 15.0 19.7   704 – Lincoln Laboratory ETS, New Mexico MPS 313014
2008 10 24.27332 02 26 35.86 +04 11 11.2 19.6   704 – Lincoln Laboratory ETS, New Mexico MPS 313014
2008 10 24.29633 02 26 34.68 +04 11 04.3 20.0   704 – Lincoln Laboratory ETS, New Mexico MPS 313014
2008 10 24.30807 02 26 34.18 +04 11 00.1 20.4   704 – Lincoln Laboratory ETS, New Mexico MPS 313014
2008 10 25.33523 02 25 43.42 +04 05 21.7 19.5 V G96 – Mt. Lemmon Survey MPS 264739
2008 10 25.34059 02 25 43.14 +04 05 20.0 19.5 V G96 – Mt. Lemmon Survey MPS 264739
2008 10 25.34601 02 25 42.85 +04 05 18.2 19.6 V G96 – Mt. Lemmon Survey MPS 264739
2008 10 25.35138 02 25 42.56 +04 05 16.7 19.8 V G96 – Mt. Lemmon Survey MPS 264739
2008 10 30.18982 02 21 42.01 +03 40 03.8 20.2 V 703 – Catalina Sky Survey MPS 264739
2008 10 30.19762 02 21 41.58 +03 40 02.6 20.3 V 703 – Catalina Sky Survey MPS 264739
2008 10 30.20532 02 21 41.22 +03 39 59.8 20.3 V 703 – Catalina Sky Survey MPS 264739
2008 10 30.21327 02 21 40.78 +03 39 56.9 19.8 V 703 – Catalina Sky Survey MPS 264739
2010 01 07.33398 09 14 58.99 +12 34 42.9 20.8 V 691 – Steward Observatory, Kitt Peak-Spacewatch MPS 309247
2010 01 07.35170 09 14 58.30 +12 34 47.2 20.6 V 691 – Steward Observatory, Kitt Peak-Spacewatch MPS 309247
2010 01 07.36942 09 14 57.66 +12 34 51.3 21.0 V 691 – Steward Observatory, Kitt Peak-Spacewatch MPS 309247
2010 01 11.26847 09 12 30.42 +12 50 46.3 20.5 V 691 – Steward Observatory, Kitt Peak-Spacewatch MPS 310140
2010 01 11.28619 09 12 29.67 +12 50 50.5 20.5 V 691 – Steward Observatory, Kitt Peak-Spacewatch MPS 310140
2010 01 11.30779 09 12 28.73 +12 50 56.5 20.4 V 691 – Steward Observatory, Kitt Peak-Spacewatch MPS 310140
2010 02 13.31716 08 45 34.09 +15 43 55.5 20.4 V G96 – Mt. Lemmon Survey MPS 313014
2010 02 13.32295 08 45 33.80 +15 43 57.0 20.3 V G96 – Mt. Lemmon Survey MPS 313014
2010 02 13.32901 08 45 33.51 +15 43 58.9 20.3 V G96 – Mt. Lemmon Survey MPS 313014
2010 02 13.33501 08 45 33.22 +15 44 00.8 20.4 V G96 – Mt. Lemmon Survey MPS 313014
2010 02 13.37486 08 45 31.28 +15 44 13.4 20.1 V G96 – Mt. Lemmon Survey MPS 313014
2010 02 13.38369 08 45 30.81 +15 44 16.6 20.3 V G96 – Mt. Lemmon Survey MPS 313014
2010 02 13.39256 08 45 30.38 +15 44 19.2 20.5 V G96 – Mt. Lemmon Survey MPS 313014
2010 02 13.40143 08 45 29.91 +15 44 21.8 20.1 V G96 – Mt. Lemmon Survey MPS 313014
2010 02 16.22060 08 43 18.19 +15 59 06.9 20.7 V G96 – Mt. Lemmon Survey MPS 313014
2010 02 16.22690 08 43 17.90 +15 59 08.8 20.5 V G96 – Mt. Lemmon Survey MPS 313014
2010 02 16.23326 08 43 17.61 +15 59 10.6 20.4 V G96 – Mt. Lemmon Survey MPS 313014
2010 02 16.23957 08 43 17.29 +15 59 12.9 20.6 V G96 – Mt. Lemmon Survey MPS 313014
2010 04 10.12417 08 32 35.73 +18 26 25.1 22.2 V G96 – Mt. Lemmon Survey MPS 323357
2010 04 10.13009 08 32 35.88 +18 26 24.9 21.5 V G96 – Mt. Lemmon Survey MPS 323357
2010 04 10.13605 08 32 35.98 +18 26 24.9 21.2 V G96 – Mt. Lemmon Survey MPS 323357
2010 04 10.14200 08 32 36.16 +18 26 25.0 21.4 V G96 – Mt. Lemmon Survey MPS 323357
2011 03 27.34828 14 34 30.88 -06 27 53.5 20.8 V 691 – Steward Observatory, Kitt Peak-Spacewatch MPS 377012
2011 03 27.36892 14 34 30.29 -06 27 46.7 20.4 V 691 – Steward Observatory, Kitt Peak-Spacewatch MPS 377012
2011 03 27.38663 14 34 29.80 -06 27 41.4 20.7 V 691 – Steward Observatory, Kitt Peak-Spacewatch MPS 377012
2011 04 04.33959 14 30 16.22 -05 45 02.6 20.8 V 691 – Steward Observatory, Kitt Peak-Spacewatch MPS 378504
2011 04 04.35730 14 30 15.58 -05 44 56.5 21.1 V 691 – Steward Observatory, Kitt Peak-Spacewatch MPS 378504
2011 04 04.37500 14 30 14.89 -05 44 50.9 20.7 V 691 – Steward Observatory, Kitt Peak-Spacewatch MPS 378504
2011 04 23.46240 14 16 24.719 -03 58 48.22 20.2 r F51 – Pan-STARRS 1, Haleakala MPS 381055
2011 04 23.47222 14 16 24.223 -03 58 45.00 20.3 r F51 – Pan-STARRS 1, Haleakala MPS 381055
2011 04 23.48371 14 16 23.651 -03 58 41.38 20.3 i F51 – Pan-STARRS 1, Haleakala MPS 381055
2011 04 23.49449 14 16 23.116 -03 58 37.87 20.3 i F51 – Pan-STARRS 1, Haleakala MPS 381055
2011 04 26.25983 14 14 10.21 -03 44 22.7 20.3 V G96 – Mt. Lemmon Survey MPS 381055
2011 04 26.26733 14 14 09.85 -03 44 20.0 20.6 V G96 – Mt. Lemmon Survey MPS 381055
2011 04 26.27487 14 14 09.45 -03 44 17.8 20.3 V G96 – Mt. Lemmon Survey MPS 381055
2011 04 26.28233 14 14 09.09 -03 44 15.5 20.3 V G96 – Mt. Lemmon Survey MPS 381055
2011 06 03.20233 13 50 27.67 -02 02 09.7 20.2 V G96 – Mt. Lemmon Survey MPS 384592
2011 06 03.20965 13 50 27.49 -02 02 09.7 21.2 V G96 – Mt. Lemmon Survey MPS 384592
2011 06 03.21706 13 50 27.34 -02 02 09.6 20.6 V G96 – Mt. Lemmon Survey MPS 384592
2011 06 03.22435 13 50 27.16 -02 02 09.9 21.4 V G96 – Mt. Lemmon Survey MPS 384592
2012 06 02.38520 21 23 12.63 -11 05 06.6 18.6 J W91 – VHS-VISTA, Cerro Paranal MPS 678196
2012 06 02.39092 21 23 12.78 -11 05 05.8 19.8 Y W91 – VHS-VISTA, Cerro Paranal MPS 678196
2012 06 02.39411 21 23 12.86 -11 05 05.4 20.1 Y W91 – VHS-VISTA, Cerro Paranal MPS 678196
2012 07 28.48070 21 11 41.838 -13 13 58.67 20.0 g F51 – Pan-STARRS 1, Haleakala MPS 429007
2012 07 28.49164 21 11 41.314 -13 14 02.69 20.0 g F51 – Pan-STARRS 1, Haleakala MPS 429007
2012 07 29.47795 21 10 56.313 -13 19 54.22 19.1 i F51 – Pan-STARRS 1, Haleakala MPS 429007
2012 07 29.48934 21 10 55.764 -13 19 58.25 19.2 i F51 – Pan-STARRS 1, Haleakala MPS 429007
2012 08 12.53675 20 59 46.06 -14 47 34.6 19.6 V E12 – Siding Spring Survey MPS 429921
2012 08 12.54963 20 59 45.38 -14 47 39.9 18.9 V E12 – Siding Spring Survey MPS 429921
2012 08 12.56255 20 59 44.66 -14 47 43.9 19.8 V E12 – Siding Spring Survey MPS 429921
2012 08 12.57540 20 59 44.08 -14 47 48.2 19.5 V E12 – Siding Spring Survey MPS 429921
2012 08 23.36872 20 51 43.801 -15 53 49.10 19.6 w F51 – Pan-STARRS 1, Haleakala MPS 430909
2012 08 23.38323 20 51 43.187 -15 53 54.14 19.6 w F51 – Pan-STARRS 1, Haleakala MPS 430909
2012 10 15.08706 20 49 08.18 -18 23 06.5 20.8 V G96 – Mt. Lemmon Survey MPS 437545
